#timestamp,LO_Frequency,Hit,StdDev 
1578383135.1,286047012.5,P
1578383155.8,286047015.6,P
1578383175.7,286047012.6,P
1578383195.5,286047013.0,Y
1578383215.4,286046999.1,P
1578383235.2,286046997.7,N
1578383255.0,286046999.4,N
1578383255.9,286046999.4,N
1578383275.8,286046996.9,N
1578383295.6,286046996.8,N
1578383315.5,286046997.0,N
1578383335.3,286046997.8,N
1578383355.1,286046997.2,N
1578383375.9,286046997.5,N
1578383395.7,286046997.7,N
1578383415.5,286046996.0,N
1578383435.4,286046993.3,N
1578383455.2,286046993.7,N
1578383475.0,286046993.4,N
1578383476.0,286046993.4,N
1578383495.8,286046996.1,N
1578383515.6,286046994.7,N
1578383535.5,286046991.7,N
1578383555.3,286046992.6,N
1578383575.1,286046992.9,N
1578383595.9,286046992.7,N
1578383615.7,286046992.6,N
1578383635.5,286046993.1,N
1578383655.4,286046992.5,N
1578383675.2,286046992.8,N
1578383695.1,286046990.3,N
1578383696.0,286046990.3,N
1578383715.8,286046991.5,N
1578383735.6,286046992.5,N
1578383755.5,286046991.8,Y
1578383775.3,286047000.4,P
1578383795.1,286047004.2,N
1578383815.9,286047002.7,N
1578383835.7,286047000.4,N
1578383855.6,286046998.1,N
1578383875.4,286047000.5,N
1578383895.2,286047002.8,N
1578383915.1,286046999.9,N
1578383916.0,286046999.9,N
1578383935.8,286046998.6,N
1578383955.6,286046998.5,N
1578383975.5,286046998.8,N
1578383995.3,286046998.7,N
